Погода в Питуффике

Гренландия     76°24′00″N   68°36′00″W
темп.,
°C
ветер,
м/с
пор.,
м/с
влажн.,
%
обл.,
%
осадки,
мм/ч
давл.,
гПа
погр.,
м
25 июля, вс
вс2501:00+4юв23705 0.0 1006161
04:00+2вюв58705 0.0 1009243
07:00+2вюв698146 0.0 1010359
10:00+2вюв478786 0.0 1011367
13:00+2вюв488785 0.0 1012452
16:00+3вюв7107840 0.0 1011479
19:00+4вюв687168 0.0 1011409
22:00+4вюв236983 0.0 1010197
26 июля, пн
пн2601:00+3в336880 0.0 100969
04:00+3вюв33667 0.0 100936
07:00+4вюв346358 0.0 100879
10:00+6вюв465558 0.0 1008232
13:00+6вюв6853100 0.0 1008388
16:00+6вюв81153100 0.0 1007507
19:00+4в91575100 0.2 1007598
22:00+5вюв111876100 0.3 1006551
27 июля, вт
вт2701:00+6вюв122088100 0.0 1004494
04:00+6вюв91692100 0.6 1003673
07:00+6юв61296100 0.6 1002401
10:00+4вюв61395100 0.6 1004397
13:00+4вюв10189398 0.0 1006418
16:00+4вюв11189285 0.0 1008395
19:00+4вюв9169193 0.0 1009364
22:00+4вюв101689100 0.0 1010372
28 июля, ср
ср2801:00+4вюв101789100 0.4 1010343
04:00+4вюв111994100 1.4 1011441
07:00+5вюв122093100 1.6 1011441
10:00+4вюв131990100 2.6 1011470
13:00+3юв132091100 0.1 1013527
16:00+4вюв111687100 0.1 1014361
19:00+4вюв122089100 0.6 1014438
22:00+4вюв122092100 1.4 1014567
29 июля, чт
чт2901:00+2вюв101693100 0.8 1015504
04:00+2вюв91693100 0.9 1018436
07:00+2вюв7149494 0.0 1020359
10:00+2вюв5119485 0.0 1022343
13:00+4вюв6108970 0.0 1022355
16:00+5вюв5989100 0.0 1021353
19:00+6в379293 0.0 1020292
22:00+5зсз119898 0.0 102080